sat.trackr.live / text

‹ back to catalog

STARLINK-3701

NORAD 52095 · 2022-029H

PAYLOAD ACTIVE UNKNOWN

§ Identity

Operator
Country
US
Launch date
2022-03-19
Launch site
AFETR
Launch vehicle
Mass (kg)
RCS (m²)

Purposes: comms

External: N2YO · Heavens-Above · Gunter

§ Orbital elements

Epoch: 2026-05-25T02:34:01.657632Z

Period
95.43 min
Inclination
53.2161°
Eccentricity
0.0002170
Mean motion
15.08890974 rev/d
Perigee alt
538.1 km
Apogee alt
541.1 km
Semi-major
6,917.7 km
B*
8.7754e-4
RAAN
106.0714°
Arg perigee
91.2035°
Mean anomaly
268.9206°
Rev number
23,219

§ Raw data

STARLINK-37011 52095U 22029H   26145.10696363  .00013725  00000+0  87754-3 0  99992 52095  53.2161 106.0714 0002170  91.2035 268.9206 15.08890974232191

JSON: /api/v1/satellites/52095 · /tle

For live sub-satellite position, see the globe view (requires WebGL).

§ Visibility from observer

Set your observer location to see the next 7 days of passes ≥ 10°. The values pass through the URL so the page stays shareable.

No JS? Fill the form by hand. The geolocation button needs JavaScript.